{"data":{"norad_id":53858,"intl_designator":"2022-114AS","name":"STARLINK-4798","alt_names":[],"object_type":"PAYLOAD","status":"ACTIVE","operator":null,"country":"US","launch_date":"2022-09-19","launch_site_code":"AFETR","launch_vehicle":null,"mission":null,"orbit_class":"UNKNOWN","rcs_meters":null,"size_class":null,"mass_kg":null,"dimensions":null,"purposes":["comms"],"wikipedia_slug":null,"has_3d_model":false,"image_url":null,"decayed_at":null,"tle_current":{"epoch":"2026-07-10T23:54:43.210080Z","epoch_age_seconds":6262042,"freshness":"OLD","line1":"1 53858U 22114AS  26191.99633345  .06875391  12441-4  26472-3 0  9999","line2":"2 53858  53.2001  46.4659 0010925 273.2968  86.6832 16.43068160212340","mean_motion":16.4306816,"eccentricity":0.0010925,"inclination_deg":53.2001,"raan_deg":46.4659,"arg_perigee_deg":273.2968,"mean_anomaly_deg":86.6832,"bstar":0.00026472,"rev_number":21234,"period_min":87.640916856425,"perigee_km":150.51312930065,"apogee_km":164.79383150032,"semimajor_km":6535.7904804005,"source":"CELESTRAK","updated_at":"2026-07-11T09:00:52.214195Z"}}}